Location: Mount Cross
(36.6390°N, 79.4878°W)
Time: 01:49:35
(UTC+00:00)

SR - Pass Details

Date: 31 March 2023
Orbit: 580 x 867 km, 66.7° (Epoch: 08 June)

Event Time Altitude Azimuth Distance (km) Brightness Sun altitude
Rises 04:37:44 0° 169° (S) 3,052 - -48.0°
Reaches altitude 10° 04:40:45 10° 151° (SSE) 2,083 - -48.2°
Maximum altitude 04:43:54 18° 109° (ESE) 1,566 - -48.3°
Drops below altitude 10° 04:46:56 10° 66° (ENE) 1,989 - -48.5°
Sets 04:49:43 0° 47° (NE) 2,861 - -48.6°
